Date String (YYYY-MM-DD hh:mm:ss) UTC,Instrument flags,Ambient pressure (hPa),Sample flow (lpm),Bypass flow (lpm),Sample temperature (°C),Ambient temperature (°C),ASC tube jacket temperature (°C),LED temperature (°C),Box temperature (°C),Sample RH (%),Span deviation,Mass concentration (μg/m³),Mass concentration (μg/m³),Mass concentration (μg/m³)
DateTimeUTC,F1_M11,P_M11,Q1_M11,Q2_M11,T1_M11,T2_M11,T3_M11,T4_M11,T5_M11,U1_M11,ZSPAN_M11,X0_M11,X2_M11,X1_M11
2022-04-12 11:00:00,,0801.0,5.00,0.00,25.2,24.4,00.0,34.3,27.1,11.8,0000.0,0027.83,0006.14,0002.48
2022-04-12 11:01:00,,0801.0,5.00,0.00,25.2,24.4,00.0,34.3,27.1,11.8,0000.0,0028.62,0006.12,0002.48
2022-04-12 11:02:00,,0801.0,5.01,0.00,25.2,24.4,00.0,34.3,27.1,11.8,0000.0,0028.11,0006.08,0002.46
2022-04-12 11:03:00,,0801.0,4.99,0.00,25.2,24.4,00.0,34.3,27.0,11.8,0000.0,0028.44,0006.07,0002.46
2022-04-12 11:04:00,,0801.0,5.02,0.00,25.2,24.3,00.0,34.2,27.0,11.9,0000.0,0028.06,0006.07,0002.48
2022-04-12 11:05:00,,0801.1,4.99,0.00,25.2,24.3,00.0,34.2,27.0,12.0,0000.0,0028.20,0006.11,0002.49
2022-04-12 11:06:00,,0801.1,4.99,0.00,25.2,24.3,00.0,34.2,26.9,12.0,0000.0,0027.69,0006.05,0002.45
2022-04-12 11:07:00,,0801.1,5.02,0.00,25.1,24.2,00.0,34.2,26.9,11.9,0000.0,0027.29,0005.97,0002.43
2022-04-12 11:08:00,,0801.0,5.00,0.00,25.1,24.2,00.0,34.2,26.9,12.0,0000.0,0026.10,0005.88,0002.41
2022-04-12 11:09:00,,0801.1,5.00,0.00,25.1,24.2,00.0,34.2,26.9,12.0,0000.0,0026.37,0005.90,0002.41
2022-04-12 11:10:00,,0801.0,5.00,0.00,25.1,24.2,00.0,34.2,26.9,12.1,0000.0,0025.18,0005.93,0002.42
2022-04-12 11:11:00,,0801.1,4.99,0.00,25.1,24.1,00.0,34.2,26.8,12.2,0000.0,0025.10,0006.04,0002.44
2022-04-12 11:12:00,,0801.1,5.02,0.00,25.0,24.0,00.0,34.2,26.8,12.1,0000.0,0024.87,0006.10,0002.43
2022-04-12 11:13:00,,0801.1,4.99,0.00,25.0,24.0,00.0,34.1,26.7,12.2,0000.0,0025.74,0006.15,0002.42
2022-04-12 11:14:00,,0801.0,5.01,0.00,25.0,24.0,00.0,34.1,26.7,12.2,0000.0,0025.63,0006.14,0002.42
2022-04-12 11:15:00,,0801.0,4.98,0.00,25.0,24.0,00.0,34.1,26.7,12.2,0000.0,0025.01,0006.15,0002.41
2022-04-12 11:16:00,,0800.9,5.01,0.00,25.0,24.0,00.0,34.1,26.8,12.2,0000.0,0024.14,0006.24,0002.44
2022-04-12 11:17:00,,0801.0,4.99,0.00,25.0,24.0,00.0,34.1,26.8,12.3,0000.0,0024.43,0006.30,0002.46
2022-04-12 11:18:00,,0801.1,5.02,0.00,24.9,24.0,00.0,34.1,26.7,12.4,0000.0,0024.54,0006.35,0002.48
2022-04-12 11:19:00,,0801.0,4.99,0.00,24.9,23.9,00.0,34.0,26.7,12.5,0000.0,0024.66,0006.45,0002.48
2022-04-12 11:20:00,,0800.9,5.01,0.00,24.9,23.9,00.0,34.0,26.7,12.4,0000.0,0025.07,0006.49,0002.47
2022-04-12 11:21:00,,0800.9,4.99,0.00,24.9,23.9,00.0,34.0,26.6,12.5,0000.0,0025.66,0006.47,0002.48
2022-04-12 11:22:00,,0800.9,5.01,0.00,24.9,23.8,00.0,34.0,26.6,12.4,0000.0,0026.83,0006.34,0002.46
2022-04-12 11:23:00,,0801.0,5.00,0.00,24.8,23.8,00.0,34.0,26.6,12.4,0000.0,0025.27,0006.25,0002.46
2022-04-12 11:24:00,,0801.0,5.00,0.00,24.8,23.8,00.0,34.0,26.6,12.5,0000.0,0024.11,0006.23,0002.50
2022-04-12 11:25:00,,0801.0,5.00,0.00,24.8,23.8,00.0,34.0,26.6,12.5,0000.0,0023.79,0006.25,0002.49
2022-04-12 11:26:00,,0801.0,5.00,0.00,24.8,23.9,00.0,33.9,26.7,12.5,0000.0,0023.56,0006.27,0002.50
2022-04-12 11:27:00,,0801.0,4.99,0.00,24.9,24.0,00.0,33.9,26.7,12.4,0000.0,0023.59,0006.13,0002.47
2022-04-12 11:28:00,,0801.0,5.01,0.00,24.9,24.0,00.0,33.9,26.7,12.5,0000.0,0023.51,0006.08,0002.48
2022-04-12 11:29:00,,0801.0,5.00,0.00,24.9,24.1,00.0,33.9,26.7,12.5,0000.0,0023.81,0006.04,0002.48
2022-04-12 11:30:00,,0801.0,5.00,0.00,24.9,24.1,00.0,33.9,26.7,12.5,0000.0,0023.80,0006.01,0002.50
2022-04-12 11:31:00,,0800.9,5.01,0.00,24.9,24.1,00.0,33.9,26.7,12.4,0000.0,0023.65,0006.00,0002.50
2022-04-12 11:32:00,,0800.9,5.00,0.00,24.9,24.1,00.0,33.9,26.7,12.3,0000.0,0023.68,0006.00,0002.49
2022-04-12 11:33:00,,0800.9,5.00,0.00,24.9,24.1,00.0,33.9,26.7,12.3,0000.0,0022.11,0006.02,0002.48
2022-04-12 11:34:00,,0800.9,5.00,0.00,24.9,24.1,00.0,33.9,26.7,12.3,0000.0,0023.00,0006.05,0002.48
2022-04-12 11:35:00,,0800.9,4.99,0.00,24.9,24.1,00.0,33.9,26.8,12.3,0000.0,0023.42,0006.06,0002.43
2022-04-12 11:36:00,,0800.8,4.99,0.00,25.0,24.1,00.0,33.9,26.7,12.3,0000.0,0023.88,0006.05,0002.43
2022-04-12 11:37:00,,0800.8,5.02,0.00,25.0,24.1,00.0,33.9,26.7,12.3,0000.0,0024.78,0006.06,0002.44
2022-04-12 11:38:00,,0800.8,4.99,0.00,25.0,24.1,00.0,33.9,26.7,12.2,0000.0,0025.37,0006.07,0002.42
2022-04-12 11:39:00,,0800.9,5.01,0.00,25.0,24.1,00.0,33.9,26.7,12.3,0000.0,0025.41,0006.07,0002.41
2022-04-12 11:40:00,,0800.8,4.99,0.00,25.0,24.0,00.0,33.9,26.7,12.4,0000.0,0024.77,0006.02,0002.41
2022-04-12 11:41:00,,0800.8,5.01,0.00,25.0,24.0,00.0,34.0,26.8,12.2,0000.0,0025.11,0005.93,0002.39
2022-04-12 11:42:00,,0800.8,4.98,0.00,25.0,24.0,00.0,34.0,26.7,12.3,0000.0,0024.91,0005.93,0002.38
2022-04-12 11:43:00,,0800.9,5.02,0.00,25.0,24.0,00.0,34.0,26.8,12.2,0000.0,0024.54,0005.88,0002.39
2022-04-12 11:44:00,,0800.8,4.98,0.00,25.0,23.9,00.0,34.0,26.8,12.3,0000.0,0024.94,0005.91,0002.38
2022-04-12 11:45:00,,0800.9,5.01,0.00,25.0,24.0,00.0,34.0,26.8,12.6,0000.0,0024.22,0005.93,0002.38
2022-04-12 11:46:00,,0800.8,4.99,0.00,25.0,24.0,00.0,34.0,26.8,12.5,0000.0,0023.80,0005.92,0002.40
2022-04-12 11:47:00,,0800.8,4.99,0.00,25.0,24.0,00.0,34.0,26.8,12.4,0000.0,0023.76,0005.90,0002.39
2022-04-12 11:48:00,,0800.9,5.01,0.00,25.0,24.0,00.0,34.0,26.8,12.4,0000.0,0023.74,0005.90,0002.37
2022-04-12 11:49:00,,0800.9,5.02,0.00,25.0,24.0,00.0,34.0,26.8,12.5,0000.0,0023.31,0005.94,0002.39
2022-04-12 11:50:00,,0800.9,4.99,0.00,25.0,24.0,00.0,34.0,26.8,12.2,0000.0,0023.25,0005.97,0002.37
2022-04-12 11:51:00,,0801.0,5.01,0.00,25.0,24.1,00.0,34.0,26.8,12.0,0000.0,0023.10,0006.02,0002.37
2022-04-12 11:52:00,,0801.1,4.99,0.00,25.0,24.1,00.0,34.0,26.9,12.3,0000.0,0021.96,0006.02,0002.37
2022-04-12 11:53:00,,0801.1,5.00,0.00,25.1,24.1,00.0,34.0,26.9,12.3,0000.0,0022.95,0005.99,0002.37
2022-04-12 11:54:00,,0801.1,5.00,0.00,25.1,24.1,00.0,34.0,26.9,12.1,0000.0,0024.64,0006.01,0002.36
2022-04-12 11:55:00,,0801.0,5.01,0.00,25.1,24.1,00.0,34.0,26.8,12.1,0000.0,0024.60,0006.01,0002.37
2022-04-12 11:56:00,,0801.1,4.98,0.00,25.1,24.1,00.0,34.0,26.8,12.6,0000.0,0024.96,0005.97,0002.37
2022-04-12 11:57:00,,0801.2,5.01,0.00,25.1,24.1,00.0,34.0,26.8,12.3,0000.0,0026.45,0005.99,0002.38
2022-04-12 11:58:00,,0801.1,4.98,0.00,25.1,24.0,00.0,34.0,26.8,12.3,0000.0,0026.88,0006.03,0002.38
2022-04-12 11:59:00,,0801.1,5.02,0.00,25.1,24.0,00.0,34.0,26.9,12.4,0000.0,0026.86,0006.06,0002.40
